Location: Sevilla
(37.3933°N, 5.9839°W)
Time: 05:33:03
(UTC+02:00)

Transit 2A Rocket - Pass Details

Date: 25 June 2024
Orbit: 582 x 910 km, 66.7° (Epoch: 15 July)

Event Time Altitude Azimuth Distance (km) Brightness Sun altitude
Rises 22:30:16 0° 238° (WSW) 3,082 8.4 -7.7°
Reaches altitude 10° 22:32:48 10° 250° (WSW) 2,223 7.9 -8.1°
Maximum altitude 22:37:11 28° 309° (NW) 1,422 7.4 -8.8°
Drops below altitude 10° 22:41:56 10° 8° (N) 2,423 8.0 -9.5°
Sets 22:44:50 0° 19° (NNE) 3,413 8.6 -9.9°
